Orbital Elements at Epoch 2459200.5 (2020-Dec-17.0) TDB
Reference: JPL 19 (heliocentric ecliptic J2000)
Element | Value | Uncertainty (1-sigma) | Units |
e | .1039289229399231 | 4.5606e-08 | |
a | 3.129600455312917 | 2.8275e-08 | au |
q | 2.804344450759953 | 1.5356e-07 | au |
i | 10.30136678246823 | 6.1272e-06 | deg |
node | 358.1656047015852 | 2.5912e-05 | deg |
peri | 276.7675922085522 | 4.0022e-05 | deg |
M | 334.4928885376229 | 3.1598e-05 | deg |
tp | 2459343.781642215478 (2021-May-09.28164222) | 0.00017782 | TDB |
period | 2022.235691942397 5.54 | 2.7406e-05 7.503e-08 | d yr |
n | .1780207922520707 | 2.4126e-09 | deg/d |
Q | 3.454856459865882 | 3.1214e-08 | au |
|
| | Orbit Determination Parameters
Additional Information
|